Tracking 28790 objects as of 19-Apr-2024
HD Live streaming from Space Station
objects crossing your sky now

FENGYUN 1C DEB

Track FENGYUN 1C DEB now!
10-day predictions


NORAD ID: 36153
Int'l Code: 1999-025DSA
Perigee: 751.2 km
Apogee: 809.0 km
Inclination: 98.6 °
Period: 100.3 minutes
Semi major axis: 7151 km
RCS: 0.0062 m2 (small)
Launch date: May 10, 1999
Source: People's Republic of China (PRC)
Launch site: Taiyaun Space Center, China (TSC)

Note: This is SATELLITE DEBRIS
Your satellite tracking list
Your tracking list is empty




NASA's NSSDC Master Catalog

Two Line Element Set (TLE):
1 36153U 99025DSA 24109.17351004  .00011973  00000-0  41219-2 0  9990
2 36153  98.6151 187.4683 0040440  65.1368 295.4014 14.35624742562587
Source of the keplerian elements: AFSPC